Location: Grand Moustoir
(47.8355°N, 3.3120°W)
Time: 12:50:50
(UTC+00:00)

ALOS - Pass Details

Date: 20 January 2020
Orbit: 683 x 686 km, 97.8° (Epoch: 20 February)

Event Time Altitude Azimuth Distance (km) Brightness Sun altitude
Rises 05:42:42 0° 12° (NNE) 3,062 5.7 -21.7°
Reaches altitude 10° 05:44:57 10° 12° (NNE) 2,141 4.9 -21.3°
Maximum altitude 05:49:38 83° 287° (WNW) 696 2.1 -20.5°
Drops below altitude 10° 05:54:17 10° 198° (SSW) 2,123 4.7 -19.7°
Sets 05:56:31 0° 198° (SSW) 3,033 5.5 -19.4°
